Location: 22
(39.7117°N, 89.5929°W)
Time: 18:37:30
(UTC-05:00)

Gurwin Techsat 1B - Pass Details

Date: 08 April 2023
Orbit: 811 x 813 km, 98.9° (Epoch: 06 June)

Event Time Altitude Azimuth Distance (km) Brightness Sun altitude
Rises 02:46:27 0° 29° (NNE) 3,345 12.8 -37.1°
Reaches altitude 10° 02:49:25 10° 46° (NE) 2,408 11.8 -36.8°
Enters shadow 02:52:53 20° 87° (E) 1,794 10.7 -36.4°
